Year,Month,Day,Hour,Minute,Value (Times are PST for temperature in C)
2011,05,18,00,00,5.40
2011,05,18,00,01,5.40
2011,05,18,00,02,5.40
2011,05,18,00,03,5.40
2011,05,18,00,04,5.40
2011,05,18,00,05,5.40
2011,05,18,00,06,5.40
2011,05,18,00,07,5.40
2011,05,18,00,08,5.40
2011,05,18,00,09,5.40
2011,05,18,00,10,5.40
2011,05,18,00,11,5.40
2011,05,18,00,12,5.40
2011,05,18,00,13,5.40
2011,05,18,00,14,5.30
2011,05,18,00,15,5.30
2011,05,18,00,16,5.30
2011,05,18,00,17,5.30
2011,05,18,00,18,5.30
2011,05,18,00,19,5.30
2011,05,18,00,20,5.30
2011,05,18,00,21,5.30
2011,05,18,00,22,5.30
2011,05,18,00,23,5.30
2011,05,18,00,24,5.30
2011,05,18,00,25,5.30
2011,05,18,00,26,5.20
2011,05,18,00,27,5.20
2011,05,18,00,28,5.20
2011,05,18,00,29,5.20
2011,05,18,00,30,5.20
2011,05,18,00,31,5.20
2011,05,18,00,32,5.20
2011,05,18,00,33,5.20
2011,05,18,00,34,5.20
2011,05,18,00,35,5.20
2011,05,18,00,36,5.20
2011,05,18,00,37,5.20
2011,05,18,00,38,5.20
2011,05,18,00,39,5.10
2011,05,18,00,40,5.10
2011,05,18,00,41,5.10
2011,05,18,00,42,5.10
2011,05,18,00,43,5.10
2011,05,18,00,44,5.10
2011,05,18,00,45,5.10
2011,05,18,00,46,5.10
2011,05,18,00,47,5.10
2011,05,18,00,48,5.10
2011,05,18,00,49,5.00
2011,05,18,00,50,4.90
2011,05,18,00,51,4.90
2011,05,18,00,52,4.90
2011,05,18,00,53,4.90
2011,05,18,00,54,4.90
2011,05,18,00,55,4.90
2011,05,18,00,56,4.80
2011,05,18,00,57,4.80
2011,05,18,00,58,4.80
2011,05,18,00,59,4.80
2011,05,18,01,00,4.80
2011,05,18,01,01,4.70
2011,05,18,01,02,4.70
2011,05,18,01,03,4.70
2011,05,18,01,04,4.70
2011,05,18,01,05,4.70
2011,05,18,01,06,4.70
2011,05,18,01,07,4.70
2011,05,18,01,08,4.70
2011,05,18,01,09,4.60
2011,05,18,01,10,4.60
2011,05,18,01,11,4.60
2011,05,18,01,12,4.60
2011,05,18,01,13,4.60
2011,05,18,01,14,4.60
2011,05,18,01,15,4.60
2011,05,18,01,16,4.60
2011,05,18,01,17,4.60
2011,05,18,01,18,4.60
2011,05,18,01,19,4.60
2011,05,18,01,20,4.70
2011,05,18,01,21,4.70
2011,05,18,01,22,4.60
2011,05,18,01,23,4.60
2011,05,18,01,24,4.60
2011,05,18,01,25,4.60
2011,05,18,01,26,4.60
2011,05,18,01,27,4.60
2011,05,18,01,28,4.60
2011,05,18,01,29,4.60
2011,05,18,01,30,4.60
2011,05,18,01,31,4.60
2011,05,18,01,32,4.60
2011,05,18,01,33,4.60
2011,05,18,01,34,4.60
2011,05,18,01,35,4.70
2011,05,18,01,36,4.70
2011,05,18,01,37,4.70
2011,05,18,01,38,4.80
2011,05,18,01,39,4.80
2011,05,18,01,40,4.80
2011,05,18,01,41,4.80
2011,05,18,01,42,4.80
2011,05,18,01,43,4.80
2011,05,18,01,44,4.80
2011,05,18,01,45,4.80
2011,05,18,01,46,4.80
2011,05,18,01,47,4.80
2011,05,18,01,48,4.70
2011,05,18,01,49,4.70
2011,05,18,01,50,4.70
2011,05,18,01,51,4.70
2011,05,18,01,52,4.60
2011,05,18,01,53,4.60
2011,05,18,01,54,4.60
2011,05,18,01,55,4.60
2011,05,18,01,56,4.60
2011,05,18,01,57,4.70
2011,05,18,01,58,4.70
2011,05,18,01,59,4.70
2011,05,18,02,00,4.70
2011,05,18,02,01,4.70
2011,05,18,02,02,4.70
2011,05,18,02,03,4.70
2011,05,18,02,04,4.70
2011,05,18,02,05,4.70
2011,05,18,02,06,4.70
2011,05,18,02,07,4.70
2011,05,18,02,08,4.70
2011,05,18,02,09,4.70
2011,05,18,02,10,4.70
2011,05,18,02,11,4.70
2011,05,18,02,12,4.60
2011,05,18,02,13,4.60
2011,05,18,02,14,4.60
2011,05,18,02,15,4.60
2011,05,18,02,16,4.60
2011,05,18,02,17,4.50
2011,05,18,02,18,4.50
2011,05,18,02,19,4.50
2011,05,18,02,20,4.50
2011,05,18,02,21,4.40
2011,05,18,02,22,4.40
2011,05,18,02,23,4.40
2011,05,18,02,24,4.40
2011,05,18,02,25,4.40
2011,05,18,02,26,4.30
2011,05,18,02,27,4.30
2011,05,18,02,28,4.30
2011,05,18,02,29,4.30
2011,05,18,02,30,4.20
2011,05,18,02,31,4.20
2011,05,18,02,32,4.20
2011,05,18,02,33,4.20
2011,05,18,02,34,4.20
2011,05,18,02,35,4.20
2011,05,18,02,36,4.20
2011,05,18,02,37,4.10
2011,05,18,02,38,4.10
2011,05,18,02,39,4.10
2011,05,18,02,40,4.10
2011,05,18,02,41,4.10
2011,05,18,02,42,4.00
2011,05,18,02,43,4.00
2011,05,18,02,44,4.00
2011,05,18,02,45,4.00
2011,05,18,02,46,4.00
2011,05,18,02,47,3.90
2011,05,18,02,48,3.90
2011,05,18,02,49,3.90
2011,05,18,02,50,3.80
2011,05,18,02,51,3.80
2011,05,18,02,52,3.80
2011,05,18,02,53,3.80
2011,05,18,02,54,3.80
2011,05,18,02,55,3.80
2011,05,18,02,56,3.80
2011,05,18,02,57,3.80
2011,05,18,02,58,3.80
2011,05,18,02,59,3.70
2011,05,18,03,00,3.70
2011,05,18,03,01,3.70
2011,05,18,03,02,3.70
2011,05,18,03,03,3.60
2011,05,18,03,04,3.60
2011,05,18,03,05,3.60
2011,05,18,03,06,3.60
2011,05,18,03,07,3.60
2011,05,18,03,08,3.60
2011,05,18,03,09,3.60
2011,05,18,03,10,3.60
2011,05,18,03,11,3.60
2011,05,18,03,12,3.60
2011,05,18,03,13,3.60
2011,05,18,03,14,3.60
2011,05,18,03,15,3.50
2011,05,18,03,16,3.50
2011,05,18,03,17,3.50
2011,05,18,03,18,3.50
2011,05,18,03,19,3.50
2011,05,18,03,20,3.50
2011,05,18,03,21,3.40
2011,05,18,03,22,3.40
2011,05,18,03,23,3.40
2011,05,18,03,24,3.40
2011,05,18,03,25,3.40
2011,05,18,03,26,3.40
2011,05,18,03,27,3.50
2011,05,18,03,28,3.50
2011,05,18,03,29,3.50
2011,05,18,03,30,3.50
2011,05,18,03,31,3.50
2011,05,18,03,32,3.60
2011,05,18,03,33,3.60
2011,05,18,03,34,3.60
2011,05,18,03,35,3.60
2011,05,18,03,36,3.60
2011,05,18,03,37,3.60
2011,05,18,03,38,3.60
2011,05,18,03,39,3.60
2011,05,18,03,40,3.60
2011,05,18,03,41,3.60
2011,05,18,03,42,3.60
2011,05,18,03,43,3.60
2011,05,18,03,44,3.60
2011,05,18,03,45,3.60
2011,05,18,03,46,3.60
2011,05,18,03,47,3.60
2011,05,18,03,48,3.60
2011,05,18,03,49,3.60
2011,05,18,03,50,3.60
2011,05,18,03,51,3.60
2011,05,18,03,52,3.60
2011,05,18,03,53,3.60
2011,05,18,03,54,3.70
2011,05,18,03,55,3.70
2011,05,18,03,56,3.70
2011,05,18,03,57,3.80
2011,05,18,03,58,3.80
2011,05,18,03,59,3.80
2011,05,18,04,00,3.80
2011,05,18,04,01,3.80
2011,05,18,04,02,3.80
2011,05,18,04,03,3.80
2011,05,18,04,04,3.80
2011,05,18,04,05,3.80
2011,05,18,04,06,3.80
2011,05,18,04,07,3.80
2011,05,18,04,08,3.80
2011,05,18,04,09,3.80
2011,05,18,04,10,3.80
2011,05,18,04,11,3.80
2011,05,18,04,12,3.80
2011,05,18,04,13,3.80
2011,05,18,04,14,3.80
2011,05,18,04,15,3.80
2011,05,18,04,16,3.80
2011,05,18,04,17,3.80
2011,05,18,04,18,3.80
2011,05,18,04,19,3.70
2011,05,18,04,20,3.70
2011,05,18,04,21,3.60
2011,05,18,04,22,3.60
2011,05,18,04,23,3.60
2011,05,18,04,24,3.50
2011,05,18,04,25,3.50
2011,05,18,04,26,3.50
2011,05,18,04,27,3.40
2011,05,18,04,28,3.40
2011,05,18,04,29,3.40
2011,05,18,04,30,3.30
2011,05,18,04,31,3.30
2011,05,18,04,32,3.30
2011,05,18,04,33,3.30
2011,05,18,04,34,3.30
2011,05,18,04,35,3.30
2011,05,18,04,36,3.20
2011,05,18,04,37,3.20
2011,05,18,04,38,3.20
2011,05,18,04,39,3.20
2011,05,18,04,40,3.20
2011,05,18,04,41,3.20
2011,05,18,04,42,3.20
2011,05,18,04,43,3.20
2011,05,18,04,44,3.20
2011,05,18,04,45,3.20
2011,05,18,04,46,3.20
2011,05,18,04,47,3.20
2011,05,18,04,48,3.20
2011,05,18,04,49,3.10
2011,05,18,04,50,3.10
2011,05,18,04,51,3.10
2011,05,18,04,52,3.10
2011,05,18,04,53,3.10
2011,05,18,04,54,3.10
2011,05,18,04,55,3.10
2011,05,18,04,56,3.20
2011,05,18,04,57,3.20
2011,05,18,04,58,3.20
2011,05,18,04,59,3.20
2011,05,18,05,00,3.20
2011,05,18,05,01,3.10
2011,05,18,05,02,3.10
2011,05,18,05,03,3.10
2011,05,18,05,04,3.10
2011,05,18,05,05,3.10
2011,05,18,05,06,3.00
2011,05,18,05,07,2.90
2011,05,18,05,08,2.90
2011,05,18,05,09,2.90
2011,05,18,05,10,2.90
2011,05,18,05,11,2.90
2011,05,18,05,12,2.90
2011,05,18,05,13,2.90
2011,05,18,05,14,2.90
2011,05,18,05,15,2.90
2011,05,18,05,16,2.80
2011,05,18,05,17,2.80
2011,05,18,05,18,2.80
2011,05,18,05,19,2.80
2011,05,18,05,20,2.80
2011,05,18,05,21,2.90
2011,05,18,05,22,2.90
2011,05,18,05,23,2.90
2011,05,18,05,24,2.90
2011,05,18,05,25,2.90
2011,05,18,05,26,2.90
2011,05,18,05,27,2.90
2011,05,18,05,28,2.90
2011,05,18,05,29,2.90
2011,05,18,05,30,2.90
2011,05,18,05,31,2.90
2011,05,18,05,32,2.90
2011,05,18,05,33,2.90
2011,05,18,05,34,2.90
2011,05,18,05,35,2.90
2011,05,18,05,36,2.90
2011,05,18,05,37,2.90
2011,05,18,05,38,2.90
2011,05,18,05,39,2.90
2011,05,18,05,40,2.90
2011,05,18,05,41,2.90
2011,05,18,05,42,2.90
2011,05,18,05,43,2.90
2011,05,18,05,44,2.90
2011,05,18,05,45,2.90
2011,05,18,05,46,3.00
2011,05,18,05,47,3.10
2011,05,18,05,48,3.10
2011,05,18,05,49,3.10
2011,05,18,05,50,3.10
2011,05,18,05,51,3.10
2011,05,18,05,52,3.10
2011,05,18,05,53,3.10
2011,05,18,05,54,3.10
2011,05,18,05,55,3.10
2011,05,18,05,56,3.10
2011,05,18,05,57,3.10
2011,05,18,05,58,3.10
2011,05,18,05,59,3.10
2011,05,18,06,00,3.10
2011,05,18,06,01,3.10
2011,05,18,06,02,3.10
2011,05,18,06,03,3.20
2011,05,18,06,04,3.30
2011,05,18,06,05,3.30
2011,05,18,06,06,3.40
2011,05,18,06,07,3.40
2011,05,18,06,08,3.50
2011,05,18,06,09,3.60
2011,05,18,06,10,3.60
2011,05,18,06,11,3.70
2011,05,18,06,12,3.70
2011,05,18,06,13,3.80
2011,05,18,06,14,3.80
2011,05,18,06,15,3.80
2011,05,18,06,16,3.90
2011,05,18,06,17,3.90
2011,05,18,06,18,3.90
2011,05,18,06,19,3.90
2011,05,18,06,20,3.90
2011,05,18,06,21,3.90
2011,05,18,06,22,3.90
2011,05,18,06,23,3.90
2011,05,18,06,24,3.90
2011,05,18,06,25,3.90
2011,05,18,06,26,4.00
2011,05,18,06,27,4.10
2011,05,18,06,28,4.20
2011,05,18,06,29,4.20
2011,05,18,06,30,4.40
2011,05,18,06,31,4.40
2011,05,18,06,32,4.50
2011,05,18,06,33,4.60
2011,05,18,06,34,4.60
2011,05,18,06,35,4.70
2011,05,18,06,36,4.80
2011,05,18,06,37,4.80
2011,05,18,06,38,4.90
2011,05,18,06,39,4.90
2011,05,18,06,40,5.00
2011,05,18,06,41,5.10
2011,05,18,06,42,5.10
2011,05,18,06,43,5.20
2011,05,18,06,44,5.20
2011,05,18,06,45,5.30
2011,05,18,06,46,5.30
2011,05,18,06,47,5.30
2011,05,18,06,48,5.30
2011,05,18,06,49,5.20
2011,05,18,06,50,5.20
2011,05,18,06,51,5.10
2011,05,18,06,52,5.10
2011,05,18,06,53,5.10
2011,05,18,06,54,5.10
2011,05,18,06,55,5.10
2011,05,18,06,56,5.10
2011,05,18,06,57,5.10
2011,05,18,06,58,5.10
2011,05,18,06,59,5.10
2011,05,18,07,00,5.20
2011,05,18,07,01,5.20
2011,05,18,07,02,5.30
2011,05,18,07,03,5.30
2011,05,18,07,04,5.30
2011,05,18,07,05,5.30
2011,05,18,07,06,5.30
2011,05,18,07,07,5.40
2011,05,18,07,08,5.40
2011,05,18,07,09,5.50
2011,05,18,07,10,5.50
2011,05,18,07,11,5.60
2011,05,18,07,12,5.70
2011,05,18,07,13,5.70
2011,05,18,07,14,5.80
2011,05,18,07,15,5.90
2011,05,18,07,16,5.90
2011,05,18,07,17,6.00
2011,05,18,07,18,6.00
2011,05,18,07,19,6.10
2011,05,18,07,20,6.10
2011,05,18,07,21,6.20
2011,05,18,07,22,6.20
2011,05,18,07,23,6.30
2011,05,18,07,24,6.40
2011,05,18,07,25,6.40
2011,05,18,07,26,6.50
2011,05,18,07,27,6.60
2011,05,18,07,28,6.60
2011,05,18,07,29,6.60
2011,05,18,07,30,6.60
2011,05,18,07,31,6.60
2011,05,18,07,32,6.70
2011,05,18,07,33,6.70
2011,05,18,07,34,6.80
2011,05,18,07,35,6.80
2011,05,18,07,36,6.90
2011,05,18,07,37,7.00
2011,05,18,07,38,7.00
2011,05,18,07,39,7.10
2011,05,18,07,40,7.20
2011,05,18,07,41,7.30
2011,05,18,07,42,7.30
2011,05,18,07,43,7.40
2011,05,18,07,44,7.50
2011,05,18,07,45,7.60
2011,05,18,07,46,7.70
2011,05,18,07,47,7.80
2011,05,18,07,48,7.80
2011,05,18,07,49,7.90
2011,05,18,07,50,7.90
2011,05,18,07,51,8.00
2011,05,18,07,52,8.10
2011,05,18,07,53,8.20
2011,05,18,07,54,8.20
2011,05,18,07,55,8.30
2011,05,18,07,56,8.30
2011,05,18,07,57,8.40
2011,05,18,07,58,8.50
2011,05,18,07,59,8.60
2011,05,18,08,00,8.70
2011,05,18,08,01,8.70
2011,05,18,08,02,8.80
2011,05,18,08,03,8.90
2011,05,18,08,04,9.00
2011,05,18,08,05,9.20
2011,05,18,08,06,9.20
2011,05,18,08,07,9.20
2011,05,18,08,08,9.30
2011,05,18,08,09,9.30
2011,05,18,08,10,9.30
2011,05,18,08,11,9.40
2011,05,18,08,12,9.50
2011,05,18,08,13,9.60
2011,05,18,08,14,9.60
2011,05,18,08,15,9.70
2011,05,18,08,16,9.80
2011,05,18,08,17,9.90
2011,05,18,08,18,10.00
2011,05,18,08,19,10.10
2011,05,18,08,20,10.20
2011,05,18,08,21,10.30
2011,05,18,08,22,10.40
2011,05,18,08,23,10.50
2011,05,18,08,24,10.60
2011,05,18,08,25,10.60
2011,05,18,08,26,10.70
2011,05,18,08,27,10.70
2011,05,18,08,28,10.80
2011,05,18,08,29,10.90
2011,05,18,08,30,11.00
2011,05,18,08,31,11.10
2011,05,18,08,32,11.10
2011,05,18,08,33,11.20
2011,05,18,08,34,11.30
2011,05,18,08,35,11.30
2011,05,18,08,36,11.40
2011,05,18,08,37,11.40
2011,05,18,08,38,11.50
2011,05,18,08,39,11.60
2011,05,18,08,40,11.60
2011,05,18,08,41,11.70
2011,05,18,08,42,11.80
2011,05,18,08,43,11.80
2011,05,18,08,44,11.80
2011,05,18,08,45,11.90
2011,05,18,08,46,12.00
2011,05,18,08,47,12.10
2011,05,18,08,48,12.20
2011,05,18,08,49,12.30
2011,05,18,08,50,12.30
2011,05,18,08,51,12.40
2011,05,18,08,52,12.40
2011,05,18,08,53,12.40
2011,05,18,08,54,12.40
2011,05,18,08,55,12.40
2011,05,18,08,56,12.30
2011,05,18,08,57,12.40
2011,05,18,08,58,12.40
2011,05,18,08,59,12.50
2011,05,18,09,00,12.60
2011,05,18,09,01,12.60
2011,05,18,09,02,12.60
2011,05,18,09,03,12.60
2011,05,18,09,04,12.50
2011,05,18,09,05,12.50
2011,05,18,09,06,12.40
2011,05,18,09,07,12.30
2011,05,18,09,08,12.30
2011,05,18,09,09,12.20
2011,05,18,09,10,12.10
2011,05,18,09,11,12.00
2011,05,18,09,12,11.90
2011,05,18,09,13,11.90
2011,05,18,09,14,11.90
2011,05,18,09,15,11.90
2011,05,18,09,16,12.00
2011,05,18,09,17,12.00
2011,05,18,09,18,12.00
2011,05,18,09,19,12.10
2011,05,18,09,20,12.10
2011,05,18,09,21,12.10
2011,05,18,09,22,12.20
2011,05,18,09,23,12.20
2011,05,18,09,24,12.30
2011,05,18,09,25,12.30
2011,05,18,09,26,12.30
2011,05,18,09,27,12.30
2011,05,18,09,28,12.30
2011,05,18,09,29,12.20
2011,05,18,09,30,12.20
2011,05,18,09,31,12.20
2011,05,18,09,32,12.30
2011,05,18,09,33,12.30
2011,05,18,09,34,12.30
2011,05,18,09,35,12.40
2011,05,18,09,36,12.50
2011,05,18,09,37,12.70
2011,05,18,09,38,12.80
2011,05,18,09,39,13.00
2011,05,18,09,40,13.00
2011,05,18,09,41,13.10
2011,05,18,09,42,13.20
2011,05,18,09,43,13.30
2011,05,18,09,44,13.40
2011,05,18,09,45,13.50
2011,05,18,09,46,13.50
2011,05,18,09,47,13.50
2011,05,18,09,48,13.60
2011,05,18,09,49,13.60
2011,05,18,09,50,13.60
2011,05,18,09,51,13.60
2011,05,18,09,52,13.70
2011,05,18,09,53,13.70
2011,05,18,09,54,13.70
2011,05,18,09,55,13.70
2011,05,18,09,56,13.80
2011,05,18,09,57,13.90
2011,05,18,09,58,14.00
2011,05,18,09,59,14.10
2011,05,18,10,00,14.20
2011,05,18,10,01,14.20
2011,05,18,10,02,14.40
2011,05,18,10,03,14.50
2011,05,18,10,04,14.60
2011,05,18,10,05,14.60
2011,05,18,10,06,14.60
2011,05,18,10,07,14.60
2011,05,18,10,08,14.60
2011,05,18,10,09,14.40
2011,05,18,10,10,14.40
2011,05,18,10,11,14.40
2011,05,18,10,12,14.40
2011,05,18,10,13,14.40
2011,05,18,10,14,14.40
2011,05,18,10,15,14.20
2011,05,18,10,16,14.10
2011,05,18,10,17,14.00
2011,05,18,10,18,14.00
2011,05,18,10,19,14.00
2011,05,18,10,20,14.00
2011,05,18,10,21,14.10
2011,05,18,10,22,14.20
2011,05,18,10,23,14.30
2011,05,18,10,24,14.40
2011,05,18,10,25,14.50
2011,05,18,10,26,14.50
2011,05,18,10,27,14.50
2011,05,18,10,28,14.50
2011,05,18,10,29,14.50
2011,05,18,10,30,14.50
2011,05,18,10,31,14.40
2011,05,18,10,32,14.20
2011,05,18,10,33,14.00
2011,05,18,10,34,13.90
2011,05,18,10,35,13.90
2011,05,18,10,36,13.80
2011,05,18,10,37,13.80
2011,05,18,10,38,13.90
2011,05,18,10,39,13.80
2011,05,18,10,40,13.90
2011,05,18,10,41,13.90
2011,05,18,10,42,13.80
2011,05,18,10,43,13.80
2011,05,18,10,44,13.80
2011,05,18,10,45,13.70
2011,05,18,10,46,13.70
2011,05,18,10,47,13.60
2011,05,18,10,48,13.60
2011,05,18,10,49,13.60
2011,05,18,10,50,13.70
2011,05,18,10,51,13.70
2011,05,18,10,52,13.70
2011,05,18,10,53,13.70
2011,05,18,10,54,13.70
2011,05,18,10,55,13.70
2011,05,18,10,56,13.60
2011,05,18,10,57,13.50
2011,05,18,10,58,13.40
2011,05,18,10,59,13.50
2011,05,18,11,00,13.50
2011,05,18,11,01,13.50
2011,05,18,11,02,13.50
2011,05,18,11,03,13.60
2011,05,18,11,04,13.60
2011,05,18,11,05,13.70
2011,05,18,11,06,13.70
2011,05,18,11,07,13.80
2011,05,18,11,08,13.70
2011,05,18,11,09,13.70
2011,05,18,11,10,13.70
2011,05,18,11,11,13.60
2011,05,18,11,12,13.60
2011,05,18,11,13,13.60
2011,05,18,11,14,13.60
2011,05,18,11,15,13.60
2011,05,18,11,16,13.60
2011,05,18,11,17,13.60
2011,05,18,11,18,13.70
2011,05,18,11,19,13.70
2011,05,18,11,20,13.80
2011,05,18,11,21,13.80
2011,05,18,11,22,13.80
2011,05,18,11,23,13.90
2011,05,18,11,24,14.00
2011,05,18,11,25,14.00
2011,05,18,11,26,14.10
2011,05,18,11,27,14.10
2011,05,18,11,28,14.20
2011,05,18,11,29,14.30
2011,05,18,11,30,14.50
2011,05,18,11,31,14.50
2011,05,18,11,32,14.60
2011,05,18,11,33,14.60
2011,05,18,11,34,14.70
2011,05,18,11,35,14.70
2011,05,18,11,36,14.70
2011,05,18,11,37,14.60
2011,05,18,11,38,14.50
2011,05,18,11,39,14.40
2011,05,18,11,40,14.30
2011,05,18,11,41,14.20
2011,05,18,11,42,14.20
2011,05,18,11,43,14.20
2011,05,18,11,44,14.10
2011,05,18,11,45,14.20
2011,05,18,11,46,14.20
2011,05,18,11,47,14.20
2011,05,18,11,48,14.30
2011,05,18,11,49,14.40
2011,05,18,11,50,14.40
2011,05,18,11,51,14.40
2011,05,18,11,52,14.40
2011,05,18,11,53,14.30
2011,05,18,11,54,14.20
2011,05,18,11,55,14.30
2011,05,18,11,56,14.40
2011,05,18,11,57,14.40
2011,05,18,11,58,14.40
2011,05,18,11,59,14.40
2011,05,18,12,00,14.30
2011,05,18,12,01,14.30
2011,05,18,12,02,14.40
2011,05,18,12,03,14.40
2011,05,18,12,04,14.50
2011,05,18,12,05,14.60
2011,05,18,12,06,14.80
2011,05,18,12,07,15.00
2011,05,18,12,08,15.10
2011,05,18,12,09,15.30
2011,05,18,12,10,15.50
2011,05,18,12,11,15.60
2011,05,18,12,12,15.80
2011,05,18,12,13,15.90
2011,05,18,12,14,15.90
2011,05,18,12,15,15.90
2011,05,18,12,16,15.80
2011,05,18,12,17,15.90
2011,05,18,12,18,15.90
2011,05,18,12,19,16.00
2011,05,18,12,20,15.90
2011,05,18,12,21,15.90
2011,05,18,12,22,15.90
2011,05,18,12,23,15.90
2011,05,18,12,24,15.80
2011,05,18,12,25,15.80
2011,05,18,12,26,15.80
2011,05,18,12,27,15.70
2011,05,18,12,28,15.70
2011,05,18,12,29,15.70
2011,05,18,12,30,15.90
2011,05,18,12,31,16.00
2011,05,18,12,32,16.10
2011,05,18,12,33,16.20
2011,05,18,12,34,16.30
2011,05,18,12,35,16.40
2011,05,18,12,36,16.50
2011,05,18,12,37,16.60
2011,05,18,12,38,16.60
2011,05,18,12,39,16.70
2011,05,18,12,40,16.70
2011,05,18,12,41,16.70
2011,05,18,12,42,16.80
2011,05,18,12,43,16.90
2011,05,18,12,44,17.00
2011,05,18,12,45,17.10
2011,05,18,12,46,17.10
2011,05,18,12,47,17.10
2011,05,18,12,48,17.00
2011,05,18,12,49,16.70
2011,05,18,12,50,16.50
2011,05,18,12,51,16.40
2011,05,18,12,52,16.50
2011,05,18,12,53,16.60
2011,05,18,12,54,16.70
2011,05,18,12,55,16.80
2011,05,18,12,56,16.80
2011,05,18,12,57,16.80
2011,05,18,12,58,16.70
2011,05,18,12,59,16.70
2011,05,18,13,00,16.80
2011,05,18,13,01,16.80
2011,05,18,13,02,16.80
2011,05,18,13,03,16.70
2011,05,18,13,04,16.70
2011,05,18,13,05,16.50
2011,05,18,13,06,16.20
2011,05,18,13,07,16.10
2011,05,18,13,08,16.10
2011,05,18,13,09,16.00
2011,05,18,13,10,16.00
2011,05,18,13,11,16.10
2011,05,18,13,12,16.00
2011,05,18,13,13,15.90
2011,05,18,13,14,15.80
2011,05,18,13,15,15.80
2011,05,18,13,16,15.80
2011,05,18,13,17,15.80
2011,05,18,13,18,15.80
2011,05,18,13,19,15.80
2011,05,18,13,20,15.70
2011,05,18,13,21,15.70
2011,05,18,13,22,15.70
2011,05,18,13,23,15.80
2011,05,18,13,24,15.90
2011,05,18,13,25,16.10
2011,05,18,13,26,16.10
2011,05,18,13,27,16.00
2011,05,18,13,28,15.90
2011,05,18,13,29,15.90
2011,05,18,13,30,15.90
2011,05,18,13,31,15.90
2011,05,18,13,32,15.80
2011,05,18,13,33,15.80
2011,05,18,13,34,15.80
2011,05,18,13,35,15.80
2011,05,18,13,36,15.80
2011,05,18,13,37,15.60
2011,05,18,13,38,15.50
2011,05,18,13,39,15.50
2011,05,18,13,40,15.50
2011,05,18,13,41,15.60
2011,05,18,13,42,15.60
2011,05,18,13,43,15.60
2011,05,18,13,44,15.70
2011,05,18,13,45,15.70
2011,05,18,13,46,15.70
2011,05,18,13,47,15.80
2011,05,18,13,48,15.80
2011,05,18,13,49,15.70
2011,05,18,13,50,15.60
2011,05,18,13,51,15.50
2011,05,18,13,52,15.50
2011,05,18,13,53,15.60
2011,05,18,13,54,15.60
2011,05,18,13,55,15.60
2011,05,18,13,56,15.60
2011,05,18,13,57,15.60
2011,05,18,13,58,15.60
2011,05,18,13,59,15.60
2011,05,18,14,00,15.60
2011,05,18,14,01,15.70
2011,05,18,14,02,15.80
2011,05,18,14,03,15.90
2011,05,18,14,04,16.00
2011,05,18,14,05,16.10
2011,05,18,14,06,16.10
2011,05,18,14,07,16.10
2011,05,18,14,08,16.10
2011,05,18,14,09,16.10
2011,05,18,14,10,16.00
2011,05,18,14,11,15.90
2011,05,18,14,12,15.80
2011,05,18,14,13,15.80
2011,05,18,14,14,15.80
2011,05,18,14,15,15.70
2011,05,18,14,16,15.80
2011,05,18,14,17,15.80
2011,05,18,14,18,15.90
2011,05,18,14,19,16.10
2011,05,18,14,20,16.30
2011,05,18,14,21,16.40
2011,05,18,14,22,16.30
2011,05,18,14,23,16.30
2011,05,18,14,24,16.30
2011,05,18,14,25,16.30
2011,05,18,14,26,16.30
2011,05,18,14,27,16.30
2011,05,18,14,28,16.30
2011,05,18,14,29,16.30
2011,05,18,14,30,16.40
2011,05,18,14,31,16.40
2011,05,18,14,32,16.50
2011,05,18,14,33,16.70
2011,05,18,14,34,16.80
2011,05,18,14,35,16.90
2011,05,18,14,36,16.90
2011,05,18,14,37,16.90
2011,05,18,14,38,16.90
2011,05,18,14,39,16.80
2011,05,18,14,40,16.90
2011,05,18,14,41,16.90
2011,05,18,14,42,16.80
2011,05,18,14,43,16.90
2011,05,18,14,44,16.90
2011,05,18,14,45,16.90
2011,05,18,14,46,16.90
2011,05,18,14,47,16.80
2011,05,18,14,48,16.80
2011,05,18,14,49,16.70
2011,05,18,14,50,16.70
2011,05,18,14,51,16.70
2011,05,18,14,52,16.60
2011,05,18,14,53,16.50
2011,05,18,14,54,16.50
2011,05,18,14,55,16.60
2011,05,18,14,56,16.70
2011,05,18,14,57,16.70
2011,05,18,14,58,16.70
2011,05,18,14,59,16.60
2011,05,18,15,00,16.50
2011,05,18,15,01,16.40
2011,05,18,15,02,16.40
2011,05,18,15,03,16.50
2011,05,18,15,04,16.50
2011,05,18,15,05,16.60
2011,05,18,15,06,16.70
2011,05,18,15,07,16.70
2011,05,18,15,08,16.80
2011,05,18,15,09,16.80
2011,05,18,15,10,16.90
2011,05,18,15,11,16.90
2011,05,18,15,12,17.00
2011,05,18,15,13,17.10
2011,05,18,15,14,17.20
2011,05,18,15,15,17.10
2011,05,18,15,16,17.00
2011,05,18,15,17,16.90
2011,05,18,15,18,16.90
2011,05,18,15,19,16.90
2011,05,18,15,20,17.00
2011,05,18,15,21,17.00
2011,05,18,15,22,17.00
2011,05,18,15,23,17.00
2011,05,18,15,24,17.00
2011,05,18,15,25,17.00
2011,05,18,15,26,17.00
2011,05,18,15,27,17.00
2011,05,18,15,28,16.90
2011,05,18,15,29,16.90
2011,05,18,15,30,16.80
2011,05,18,15,31,16.70
2011,05,18,15,32,16.60
2011,05,18,15,33,16.50
2011,05,18,15,34,16.40
2011,05,18,15,35,16.30
2011,05,18,15,36,16.20
2011,05,18,15,37,16.10
2011,05,18,15,38,16.10
2011,05,18,15,39,15.90
2011,05,18,15,40,15.80
2011,05,18,15,41,15.70
2011,05,18,15,42,15.60
2011,05,18,15,43,15.30
2011,05,18,15,44,15.20
2011,05,18,15,45,15.20
2011,05,18,15,46,15.20
2011,05,18,15,47,15.20
2011,05,18,15,48,15.10
2011,05,18,15,49,14.90
2011,05,18,15,50,14.70
2011,05,18,15,51,14.60
2011,05,18,15,52,14.50
2011,05,18,15,53,14.50
2011,05,18,15,54,14.50
2011,05,18,15,55,14.50
2011,05,18,15,56,14.50
2011,05,18,15,57,14.40
2011,05,18,15,58,14.50
2011,05,18,15,59,14.50
2011,05,18,16,00,14.50
2011,05,18,16,01,14.50
2011,05,18,16,02,14.40
2011,05,18,16,03,14.20
2011,05,18,16,04,14.10
2011,05,18,16,05,14.00
2011,05,18,16,06,13.90
2011,05,18,16,07,13.90
2011,05,18,16,08,13.90
2011,05,18,16,09,13.90
2011,05,18,16,10,13.80
2011,05,18,16,11,13.80
2011,05,18,16,12,13.80
2011,05,18,16,13,13.90
2011,05,18,16,14,13.90
2011,05,18,16,15,13.90
2011,05,18,16,16,13.80
2011,05,18,16,17,13.80
2011,05,18,16,18,13.80
2011,05,18,16,19,13.80
2011,05,18,16,20,13.80
2011,05,18,16,21,13.90
2011,05,18,16,22,13.90
2011,05,18,16,23,13.90
2011,05,18,16,24,13.90
2011,05,18,16,25,13.90
2011,05,18,16,26,13.80
2011,05,18,16,27,13.70
2011,05,18,16,28,13.70
2011,05,18,16,29,13.70
2011,05,18,16,30,13.70
2011,05,18,16,31,13.70
2011,05,18,16,32,13.70
2011,05,18,16,33,13.80
2011,05,18,16,34,13.90
2011,05,18,16,35,13.90
2011,05,18,16,36,13.90
2011,05,18,16,37,13.90
2011,05,18,16,38,13.90
2011,05,18,16,39,13.80
2011,05,18,16,40,13.70
2011,05,18,16,41,13.70
2011,05,18,16,42,13.70
2011,05,18,16,43,13.70
2011,05,18,16,44,13.70
2011,05,18,16,45,13.70
2011,05,18,16,46,13.70
2011,05,18,16,47,13.80
2011,05,18,16,48,13.90
2011,05,18,16,49,13.80
2011,05,18,16,50,13.80
2011,05,18,16,51,13.70
2011,05,18,16,52,13.70
2011,05,18,16,53,13.70
2011,05,18,16,54,13.60
2011,05,18,16,55,13.60
2011,05,18,16,56,13.50
2011,05,18,16,57,13.50
2011,05,18,16,58,13.40
2011,05,18,16,59,13.30
2011,05,18,17,00,13.20
2011,05,18,17,01,13.20
2011,05,18,17,02,13.20
2011,05,18,17,03,13.10
2011,05,18,17,04,13.10
2011,05,18,17,05,13.00
2011,05,18,17,06,12.90
2011,05,18,17,07,12.90
2011,05,18,17,08,12.80
2011,05,18,17,09,12.80
2011,05,18,17,10,12.80
2011,05,18,17,11,12.80
2011,05,18,17,12,12.80
2011,05,18,17,13,12.80
2011,05,18,17,14,12.80
2011,05,18,17,15,12.90
2011,05,18,17,16,12.90
2011,05,18,17,17,13.00
2011,05,18,17,18,13.00
2011,05,18,17,19,13.00
2011,05,18,17,20,13.10
2011,05,18,17,21,13.10
2011,05,18,17,22,13.20
2011,05,18,17,23,13.20
2011,05,18,17,24,13.10
2011,05,18,17,25,13.10
2011,05,18,17,26,13.00
2011,05,18,17,27,13.00
2011,05,18,17,28,13.00
2011,05,18,17,29,13.00
2011,05,18,17,30,13.10
2011,05,18,17,31,13.00
2011,05,18,17,32,13.00
2011,05,18,17,33,12.80
2011,05,18,17,34,12.70
2011,05,18,17,35,12.50
2011,05,18,17,36,12.50
2011,05,18,17,37,12.40
2011,05,18,17,38,12.30
2011,05,18,17,39,12.30
2011,05,18,17,40,12.30
2011,05,18,17,41,12.20